星链-34416 (STARLINK-34416)

导读

STARLINK-34416是美国于2025年6月25日发射的Starlink星座卫星,属于SpaceX打造的低轨互联网卫星星座项目。该卫星主要为全球偏远地区、海洋船舶以及高需求区域提供高速低延迟宽带互联网服务,依托低轨部署,大幅降低通信延迟,助力全球网络覆盖,推动全球互联互通。

基本信息
目录编号:
64619
目录名称:
STARLINK-34416
国际标识:
2025-137AB
轨道中心:
EARTH
卫星名称:
星链-34416
卫星全名:
星链-34416 (STARLINK-34416)
卫星状态:
在轨 (已飞行437 天)
发射日期:
2025-06-25 UTC
国别 :
美国 (US)
星等 :
--
轨道信息
数据来源 国际轨道数据
星历时间: 2026-09-05T14:57:44+0800
6小时前
查看轨道信息
半长轴: 6840.849km
偏心率: 0.000127
轨道倾角: 53.156°
近地点辐角 96.148°
升交点赤经 218.801°
平近点角 263.967°
近地点: 461.843km
远地点: 463.581km
周期: 93.848分钟
每日圈数: 15.343972
详细信息
固有亮度:
5
最大亮度:
2.5
卫星平台:
Starlink V1.0
覆盖范围:
全球
运营商:
太空探索技术公司
运营商所在国:
美国
制造商(研发单位):
太空探索技术公司
制造商所在国:
美国
使用方式:
暂无
卫星简介
Starlink 计划是 SpaceX 推出的全球卫星互联网项目,通过发射低轨道卫星,为全球尤其是偏远地区提供高速、低延迟的互联网服务。自 2019 年起,Starlink 已部署数千颗卫星,旨在缩小全球数字鸿沟,推动互联网普及。该项目还为军事、航空等行业提供通信支持,带来广泛经济效益。
2D轨道图
3D轨道图
轨道高度分析图
轨道倾角分析图
轨道综合分析图
查看轨道综合分析图
交会数据列表
事件ID 空间交会对象 最接近时刻(TCA) 交会距离 交会风险概率(CRP) 交会风险指数(CRI) 操作
CDM_260905-193906-461906-809821
2026-09-05T
19:39:29+0000
0.701 km
远距离
6.037445E-5 中风险 0.71
CDM_260906-010706-461906-809821
2026-09-06T
01:07:41+0000
1.196 km
极远距离
1.013505E-5 中风险 0.55
CDM_260906-103905-972906-461921
2026-09-06T
10:39:39+0000
1.693 km
极远距离
3.672021E-6 低风险 0.46
CDM_260906-161106-178106-461921
2026-09-06T
16:11:34+0000
1.777 km
极远距离
3.365541E-6 低风险 0.46
CDM_260905-160505-702306-461921
OBJECT V (57023)
2026-09-05T
16:05:44+0000
2.359 km
极远距离
1.908778E-6 低风险 0.41
CDM_260905-142205-115206-461921
2026-09-05T
14:22:36+0000
2.438 km
极远距离
4.32892E-7 极低风险 0.28